Salem, Oregon, United States (97301)
Lat: 44.94N, Lon: 123.03W
Wx Zone: ORZ007
Local Info
Past Weather Observations for Tuesday, October 21, 2014

NOTE: This archive is for the closest National Weather Service station to Salem. Information may differ from the station used for current weather conditions.

Click here for Long-term Archive

Time Weather Temperature Dewpoint Humidity Pressure Winds Precip Visibility
23:56
Overcast
Light Rain
55°F / 13°C 50°F / 10°C 82% 29.83 in
(1010 mb)
S 15 mph
(S 24 kph)
0.03 in
(0.76 mm)
10SM
22:56
Overcast
Light Rain
55°F / 13°C 48°F / 9°C 77% 29.83 in
(1010 mb)
SSE 16.1 mph
(SSE 26 kph)
0.02 in
(0.51 mm)
10SM
21:56
Overcast
Light Rain
55°F / 13°C 48°F / 9°C 77% 29.86 in
(1011 mb)
S 10.4 mph
(S 17 kph)
0.05 in
(1.27 mm)
10SM
20:56
Overcast
Light Rain
57°F / 14°C 48°F / 9°C 72% 29.86 in
(1011 mb)
SSE 10.4 mph
(SSE 17 kph)
0.02 in
(0.51 mm)
10SM
19:56
Overcast
Light Rain
57°F / 14°C 46°F / 8°C 67% 29.89 in
(1012 mb)
SSE 15 mph
(SSE 24 kph)
0.00 in
(0.00 mm)
10SM
18:56
Overcast
61°F / 16°C 46°F / 8°C 59% 29.89 in
(1012 mb)
SSE 10.4 mph
(SSE 17 kph)
- 10SM
17:56
Overcast
61°F / 16°C 48°F / 9°C 63% 29.92 in
(1013 mb)
SSE 11.5 mph
(SSE 19 kph)
- 10SM
16:56
Overcast
61°F / 16°C 48°F / 9°C 63% 29.92 in
(1013 mb)
S 8.1 mph
(S 13 kph)
- 10SM
15:56
Overcast
61°F / 16°C 48°F / 9°C 63% 29.95 in
(1014 mb)
S 11.5 mph
(S 19 kph)
- 10SM
14:56
Overcast
61°F / 16°C 48°F / 9°C 63% 29.98 in
(1015 mb)
S 9.2 mph
(S 15 kph)
- 10SM
13:56
Overcast
61°F / 16°C 50°F / 10°C 68% 29.98 in
(1015 mb)
S 10.4 mph
(S 17 kph)
0.00 in
(0.00 mm)
10SM
12:56
Overcast
61°F / 16°C 48°F / 9°C 63% 29.98 in
(1015 mb)
S 15 mph
(S 24 kph)
- 10SM
11:56
Mostly Cloudy
61°F / 16°C 48°F / 9°C 63% 30.01 in
(1016 mb)
S 15 mph
(S 24 kph)
- 10SM
10:56
Overcast
59°F / 15°C 48°F / 9°C 68% 30.01 in
(1016 mb)
S 17.3 mph
(S 28 kph)
0.00 in
(0.00 mm)
10SM
09:56
Mostly Cloudy
57°F / 14°C 48°F / 9°C 72% 30.01 in
(1016 mb)
S 17.3 mph
(S 28 kph)
- 10SM
08:56
Mostly Cloudy
55°F / 13°C 48°F / 9°C 77% 30.01 in
(1016 mb)
S 17.3 mph
(S 28 kph)
- 10SM
07:56
Mostly Cloudy
55°F / 13°C 48°F / 9°C 77% 30.01 in
(1016 mb)
S 15 mph
(S 24 kph)
- 10SM
06:56
Mostly Cloudy
54°F / 12°C 48°F / 9°C 82% 29.98 in
(1015 mb)
SSE 16.1 mph
(SSE 26 kph)
- 10SM
05:56
Mostly Cloudy
54°F / 12°C 48°F / 9°C 82% 29.98 in
(1015 mb)
SSE 12.7 mph
(SSE 20 kph)
- 10SM
04:56
Overcast
54°F / 12°C 48°F / 9°C 82% 29.95 in
(1014 mb)
S 17.3 mph
(S 28 kph)
0.03 in
(0.76 mm)
10SM
03:56
Overcast
Light Rain
55°F / 13°C 48°F / 9°C 77% 29.95 in
(1014 mb)
S 12.7 mph
(S 20 kph)
0.00 in
(0.00 mm)
10SM
02:56
Overcast
55°F / 13°C 48°F / 9°C 77% 29.92 in
(1013 mb)
S 11.5 mph
(S 19 kph)
- 10SM
01:56
Mostly Cloudy
55°F / 13°C 48°F / 9°C 77% 29.92 in
(1013 mb)
S 12.7 mph
(S 20 kph)
- 10SM
00:56
Overcast
55°F / 13°C 50°F / 10°C 82% 29.89 in
(1012 mb)
S 12.7 mph
(S 20 kph)
- 10SM
Time Weather Temperature Dewpoint Humidity Pressure Winds Precip Visibility


Weather for websites

WeatherForYou.com, LLC is not responsible for any damages or problems caused by this service. Current weather conditions are obtained from the closest station including government and personal stations which may have varying degrees of accuracy. Weather forecasts are derived from the NOAA NDFD. Like all things, this site belongs to Jesus Christ... He just trusts me to maintain it. If you have any questions or comments email webmaster@weatherforyou.com

Copyright © 2014, WeatherForYou.com LLC. All rights reserved.